カタログに戻る

KUIPER-00087

運用中通信LEO
NORAD 64833·PAYLOAD·🇺🇸 United States

打ち上げ Jul 16, 2025 から Cape Canaveral Space Force Station

Loading…

次のパス (今後24時間)

TLE

最新Source: CelesTrak SupGP

元期: Sep 14, 2026, 19:10 UTC

1 64833C 25151T   26257.79871528 -.00001480  00000+0 -19416-3 0  2572
2 64833  51.8984 164.3282 0001006  92.8343  94.3354 14.79845927    18

AllMySatでKUIPER-00087をリアルタイム追跡

Download on the App Store